[[{"header":{"parameterUnit":"m.s-1","parameterCategory":1,"la1":30.2991,"la2":30.254,"lo1":-89.0895,"lo2":-89.0444,"dy":0.0017,"dx":0.0017,"nx":28,"ny":28,"refTime":"2024-03-12T03:00:00:Z","depth":0,"parameterNumber":2,"parameterNumberName":"U-component_of_WINDS"},"data":[0,0,0,0,0,0,0,0,0,0,0,0,0,0,0,0,0,0,0,0,0,0,0,0,0,0,0,0,0,0,0,0,0,0,0,0,0,0,0,0,0,0,0,0,0,0,0,0,0,0,0,0,0,0,0,0,0,0,-3.1923,-3.1922,0,-3.1848,-3.1847,-3.1847,-3.1747,-3.1745,-3.1744,-3.1742,-3.1664,-3.1664,-3.1663,0,0,0,0,0,0,0,0,0,0,0,0,0,-3.1981,-3.198,-3.1923,-3.1922,-3.1921,-3.1848,-3.1847,-3.1846,-3.1747,-3.1745,-3.1743,-3.1741,-3.1664,-3.1664,-3.1663,0,0,0,0,0,0,0,0,0,0,0,0,0,-3.1936,-3.198,-3.1923,-3.1863,-3.1857,-3.1849,-3.1847,-3.1846,-3.1748,-3.1745,-3.1743,-3.174,-3.1665,-3.1664,-3.1663,-3.1707,0,0,-3.1661,-3.166,0,0,0,0,0,0,0,0,-3.1938,-3.1934,-3.1873,-3.1867,-3.186,-3.1804,-3.1839,-3.18,-3.1748,-3.1789,-3.1742,-3.1739,-3.1713,-3.1708,-3.1699,-3.1704,-3.17,-3.1661,-3.166,-3.166,-3.1659,0,0,0,0,0,0,0,-3.1942,-3.1936,-3.1893,-3.1872,-3.1865,-3.184,-3.1831,-3.1831,-3.1766,-3.1785,-3.1778,-3.1771,-3.1709,-3.17,-3.1697,-3.1699,-3.1661,-3.166,-3.1659,-3.1659,-3.1737,-3.174,0,0,0,0,0,0,-3.1954,-3.194,-3.1896,-3.1891,-3.1894,-3.1841,-3.1831,-3.1825,-3.1765,-3.1754,-3.1773,-3.1766,-3.1703,-3.1698,-3.1694,-3.1741,-3.166,-3.1659,-3.1658,-3.1735,-3.1738,-3.1741,0,0,0,0,0,0,-3.1955,-3.1951,-3.1899,-3.1913,-3.1905,-3.1843,-3.1837,-3.1825,-3.1816,-3.1756,-3.1744,-3.1776,-3.1701,-3.1695,-3.1705,-3.1737,-3.1659,-3.1658,-3.1732,-3.1736,-3.1739,-3.1838,0,0,0,0,0,0,-3.1958,-3.1952,-3.1968,-3.1915,-3.1905,-3.1912,-3.1839,-3.1825,-3.1815,-3.1806,-3.1756,-3.1745,-3.1698,-3.1707,-3.1704,-3.1735,-3.1657,-3.1728,-3.1733,-3.1738,-3.1832,-3.1845,-3.1856,0,0,0,0,0,-3.196,-3.1998,-3.1969,-3.1965,-3.1923,-3.1914,-3.1908,-3.1854,-3.1818,-3.1834,-3.1795,-3.1746,-3.1735,-3.1709,-3.1705,-3.1736,-3.1726,-3.1732,-3.1738,-3.1826,-3.1842,-3.1856,0,0,0,0,0,0,-3.2056,-3.199,-3.1957,-3.198,-3.1953,-3.1897,-3.1915,-3.1873,-3.1856,-3.1848,-3.1781,-3.1771,-3.1789,-3.1764,-3.1736,-3.1776,-3.1723,-3.1729,-3.1792,-3.1807,-3.1819,-3.1824,-3.1656,0,0,0,0,0,-3.208,-3.2078,-3.2021,-3.2046,-3.2035,-3.1978,-3.1971,-3.1932,-3.1902,-3.189,-3.1852,-3.1825,-3.1815,-3.181,-3.1797,-3.1828,-3.1816,-3.1848,-3.186,-3.1871,-3.1876,-3.1891,-3.1904,-3.176,-3.176,-3.1759,0,0,-3.2129,-3.2093,-3.2096,-3.2065,-3.2039,-3.2039,-3.1969,-3.1971,-3.197,-3.189,-3.1897,-3.187,-3.1834,-3.1856,-3.1863,-3.1835,-3.1913,-3.1878,-3.1887,-3.1886,-3.1898,-3.1912,-3.1924,-3.1764,-3.1763,-3.1762,0,0,-3.2219,-3.2191,-3.2209,-3.2186,-3.215,-3.2112,-3.2117,-3.2067,-3.2046,-3.2053,-3.1993,-3.1992,-3.1976,-3.1953,-3.194,-3.2024,-3.1978,-3.2022,-3.2085,-3.2101,-3.2112,-3.2122,-3.2151,-3.2163,-3.2027,-3.2027,-3.2027,0,-3.2284,-3.2281,-3.2224,-3.223,-3.2218,-3.2148,-3.2166,-3.2147,-3.2108,-3.2101,-3.2071,-3.2051,-3.2022,-3.2037,-3.2058,-3.205,-3.2053,-3.2026,-3.2115,-3.2124,-3.2133,-3.216,-3.2171,-3.2033,-3.2032,-3.2031,-3.2031,0,-3.2363,-3.2362,-3.2381,-3.2347,-3.2337,-3.235,-3.2295,-3.2292,-3.2255,-3.2221,-3.2229,-3.2193,-3.2172,-3.2173,-3.2136,-3.2184,-3.2167,-3.2127,-3.2072,-3.2153,-3.2177,-3.2188,-3.204,-3.2039,-3.2037,-3.2036,0,0,-3.2508,-3.2444,-3.2452,-3.2436,-3.2391,-3.2389,-3.2399,-3.238,-3.2379,-3.2356,-3.2362,-3.2351,-3.2314,-3.2299,-3.226,-3.2274,-3.2342,-3.2231,-3.2229,-3.2253,-3.2393,-3.2423,-3.2436,-3.2313,-3.2315,-3.2316,-3.2395,0,-3.2588,-3.2601,-3.2551,-3.2577,-3.2575,-3.251,-3.2519,-3.2493,-3.2462,-3.2456,-3.2421,-3.2415,-3.2367,-3.2357,-3.2368,-3.2332,-3.2369,-3.2326,-3.2318,-3.2318,-3.2327,-3.2448,-3.248,-3.2556,-3.2405,-3.2406,-3.2407,0,-3.2682,-3.2665,-3.2691,-3.2646,-3.2644,-3.2653,-3.2631,-3.2627,-3.2597,-3.2573,-3.2558,-3.2513,-3.252,-3.2469,-3.2477,-3.2449,-3.2443,-3.2425,-3.2427,-3.2423,-3.2367,-3.2447,-3.2579,-3.259,-3.2422,-3.2421,-3.242,0,-3.2785,-3.2768,-3.2781,-3.277,-3.2719,-3.2726,-3.2705,-3.2673,-3.2665,-3.2647,-3.2641,-3.2624,-3.2614,-3.2602,-3.2554,-3.2522,-3.2568,-3.2513,-3.2549,-3.255,-3.256,-3.256,-3.2692,-3.2559,-3.2559,-3.2558,-3.2558,0,-3.2878,-3.2897,-3.2827,-3.2835,-3.2854,-3.2798,-3.2818,-3.2791,-3.2763,-3.2764,-3.2707,-3.271,-3.2647,-3.2643,-3.2605,-3.2618,-3.2614,-3.2596,-3.2585,-3.26,-3.2602,-3.2594,-3.2587,-3.2561,-3.2561,-3.256,-3.256,0,-3.2995,-3.2949,-3.296,-3.2911,-3.29,-3.2916,-3.2874,-3.288,-3.2846,-3.285,-3.2847,-3.2794,-3.2787,-3.2738,-3.2719,-3.2694,-3.2721,-3.27,-3.2731,-3.2724,-3.2762,-3.2759,-3.2892,-3.2907,-3.2766,-3.2767,-3.2768,0,-3.3057,-3.307,-3.3023,-3.3021,-3.3003,-3.3,-3.2992,-3.2938,-3.2932,-3.2899,-3.2909,-3.2898,-3.2885,-3.2877,-3.2836,-3.2822,-3.28,-3.2849,-3.2798,-3.2813,-3.28,-3.28,-3.2801,-3.2859,-3.2861,-3.2862,-3.2863,0,-3.3172,-3.3149,-3.314,-3.3124,-3.3116,-3.3101,-3.3082,-3.3083,-3.3023,-3.302,-3.3012,-3.3003,-3.2984,-3.2974,-3.2953,-3.2931,-3.2888,-3.288,-3.2887,-3.2902,-3.2919,-3.291,-3.2759,-3.2877,-3.2875,-3.2874,-3.2874,-3.2873,-3.3262,-3.3271,-3.324,-3.3232,-3.3213,-3.3197,-3.32,-3.3168,-3.3161,-3.3142,-3.3111,-3.3108,-3.3079,-3.3047,-3.3029,-3.3026,-3.3,-3.3011,-3.3013,-3.3017,-3.3024,-3.2921,-3.3022,-3.3021,-3.3021,-3.3021,-3.302,0,-3.3373,-3.3351,-3.3345,-3.3321,-3.3315,-3.3276,-3.3253,-3.3251,-3.3249,-3.3226,-3.3216,-3.3208,-3.3198,-3.3158,-3.3143,-3.3149,-3.3129,-3.3147,-3.3145,-3.3141,-3.3048,-3.3043,-3.3163,-3.3163,-3.3163,-3.3163,-3.3163,-3.3163,-3.3431,-3.3443,-3.3418,-3.3421,-3.3398,-3.3395,-3.3385,-3.3371,-3.3352,-3.3346,-3.3337,-3.3312,-3.3282,-3.3266,-3.3255,-3.3243,-3.324,-3.3265,-3.3247,-3.3161,-3.3147,-3.3134,-3.3129,-3.3265,-3.3266,-3.334,-3.3341,-3.3341]},{"header":{"parameterUnit":"m.s-1","parameterCategory":1,"la1":30.2991,"la2":30.254,"lo1":-89.0895,"lo2":-89.0444,"dy":0.0017,"dx":0.0017,"nx":28,"ny":28,"refTime":"2024-03-12T03:00:00:Z","depth":0,"parameterNumber":3,"parameterNumberName":"V-component_of_WINDS"},"data":[0,0,0,0,0,0,0,0,0,0,0,0,0,0,0,0,0,0,0,0,0,0,0,0,0,0,0,0,0,0,0,0,0,0,0,0,0,0,0,0,0,0,0,0,0,0,0,0,0,0,0,0,0,0,0,0,0,0,1.1199,1.1199,0,1.1213,1.1213,1.1213,1.1255,1.1255,1.1256,1.1257,1.127,1.1269,1.1269,0,0,0,0,0,0,0,0,0,0,0,0,0,1.1208,1.1208,1.1199,1.1199,1.12,1.1213,1.1213,1.1213,1.1254,1.1255,1.1257,1.1258,1.127,1.1269,1.1269,0,0,0,0,0,0,0,0,0,0,0,0,0,1.1211,1.1208,1.1199,1.1222,1.1224,1.1213,1.1213,1.1214,1.1254,1.1256,1.1257,1.1258,1.127,1.1269,1.1268,1.1237,0,0,1.1266,1.1266,0,0,0,0,0,0,0,0,1.1211,1.1211,1.1218,1.122,1.1223,1.1234,1.1221,1.1221,1.1254,1.1243,1.1257,1.1259,1.1256,1.1257,1.1256,1.1237,1.1238,1.1266,1.1266,1.1265,1.1265,0,0,0,0,0,0,0,1.1211,1.1211,1.1205,1.1218,1.1221,1.1231,1.1233,1.1221,1.1242,1.1244,1.1247,1.1248,1.1258,1.1257,1.1257,1.1238,1.1266,1.1265,1.1265,1.1265,1.1196,1.1194,0,0,0,0,0,0,1.1207,1.121,1.1204,1.1205,1.122,1.123,1.1232,1.1229,1.1242,1.1245,1.1247,1.125,1.1258,1.1258,1.1258,1.1223,1.1265,1.1265,1.1264,1.1197,1.1195,1.1194,0,0,0,0,0,0,1.1208,1.1207,1.1204,1.1208,1.1209,1.1228,1.1224,1.1228,1.1227,1.1244,1.1248,1.1242,1.1259,1.1259,1.1242,1.1224,1.1264,1.1263,1.1199,1.1196,1.1195,1.1152,0,0,0,0,0,0,1.1208,1.1206,1.1194,1.1208,1.1208,1.1188,1.1223,1.1227,1.1226,1.123,1.1241,1.1244,1.126,1.1243,1.1241,1.1223,1.1263,1.12,1.1198,1.1195,1.1155,1.1148,1.1143,0,0,0,0,0,1.1208,1.1181,1.1193,1.1192,1.1194,1.1187,1.1187,1.1206,1.1224,1.1213,1.1224,1.1244,1.1226,1.1241,1.1239,1.1221,1.1202,1.1198,1.1195,1.1157,1.115,1.1143,0,0,0,0,0,0,1.1163,1.1183,1.1197,1.1173,1.1178,1.1194,1.1179,1.1197,1.1196,1.12,1.1223,1.1225,1.1206,1.1212,1.1228,1.1192,1.1217,1.1214,1.1189,1.1181,1.1176,1.1175,1.1262,0,0,0,0,0,1.115,1.1143,1.1161,1.1138,1.114,1.1159,1.1157,1.1172,1.1177,1.1179,1.1189,1.1193,1.1189,1.1185,1.1182,1.1156,1.116,1.1142,1.1136,1.1132,1.1128,1.1117,1.111,1.1184,1.1184,1.1184,0,0,1.1124,1.1134,1.1128,1.113,1.1135,1.1128,1.116,1.115,1.1145,1.1177,1.1163,1.117,1.1177,1.1156,1.1147,1.116,1.1109,1.1128,1.1123,1.1123,1.1113,1.1106,1.11,1.1182,1.1182,1.1182,0,0,1.1073,1.1079,1.1062,1.1068,1.1076,1.1089,1.1085,1.1098,1.1105,1.1091,1.1116,1.111,1.1101,1.1106,1.1107,1.106,1.1078,1.1058,1.1027,1.1015,1.1009,1.1004,1.0989,1.0983,1.1055,1.1054,1.1054,0,1.1039,1.1029,1.1051,1.104,1.1041,1.1071,1.1055,1.1058,1.1065,1.1065,1.108,1.1071,1.1078,1.1059,1.1048,1.1047,1.1044,1.1057,1.1009,1.1004,1.0999,1.0985,1.0979,1.1052,1.1052,1.1053,1.1053,0,1.0988,1.098,1.0966,1.0973,1.0972,1.0958,1.0979,1.0975,1.099,1.1002,1.0989,1.0998,1.0998,1.0994,1.1008,1.0978,1.0986,1.1004,1.103,1.099,1.0976,1.0971,1.1049,1.1049,1.105,1.1051,0,0,1.0907,1.0929,1.0923,1.0928,1.094,1.0935,1.0923,1.0924,1.0921,1.0925,1.0917,1.091,1.0928,1.0929,1.0944,1.0933,1.0898,1.0953,1.0954,1.0944,1.0867,1.0854,1.0847,1.091,1.0909,1.0908,1.0867,0,1.086,1.0841,1.0862,1.0839,1.0834,1.0864,1.0854,1.086,1.0872,1.0869,1.0881,1.0876,1.0899,1.09,1.0892,1.0904,1.0883,1.0907,1.0903,1.0903,1.0901,1.084,1.0825,1.0786,1.0862,1.0861,1.086,0,1.0801,1.0804,1.0782,1.0798,1.0796,1.0787,1.0791,1.0787,1.0796,1.0805,1.0808,1.0827,1.0817,1.0842,1.083,1.0846,1.0846,1.0852,1.0851,1.0851,1.0879,1.084,1.0773,1.0767,1.0852,1.0853,1.0853,0,1.0747,1.0745,1.0732,1.0734,1.0752,1.0746,1.0753,1.0763,1.0763,1.0767,1.0767,1.0769,1.077,1.0771,1.079,1.0807,1.0776,1.0802,1.0784,1.0783,1.0776,1.0776,1.0709,1.0774,1.0774,1.0774,1.0775,0,1.0692,1.0677,1.0708,1.0699,1.0684,1.0709,1.0693,1.0703,1.0712,1.0707,1.0732,1.0727,1.0752,1.075,1.0765,1.0753,1.0753,1.076,1.0764,1.0758,1.0758,1.0759,1.0762,1.0773,1.0773,1.0774,1.0774,0,1.0628,1.0648,1.0636,1.0655,1.0659,1.0647,1.0664,1.0657,1.0671,1.0664,1.0664,1.0685,1.0683,1.0703,1.0704,1.0715,1.0696,1.0705,1.0694,1.0697,1.0677,1.0679,1.0609,1.0602,1.0671,1.067,1.0669,0,1.0592,1.0582,1.06,1.0599,1.0605,1.0603,1.0604,1.0628,1.0628,1.0638,1.0631,1.0632,1.0634,1.063,1.0645,1.0647,1.0657,1.0632,1.0657,1.0652,1.0658,1.0659,1.0658,1.0627,1.0626,1.0625,1.0625,0,1.0526,1.0537,1.0538,1.0543,1.0544,1.0548,1.0554,1.0552,1.0578,1.0577,1.0576,1.0578,1.0581,1.0582,1.0587,1.0595,1.0614,1.0617,1.0613,1.0607,1.0601,1.0605,1.068,1.0618,1.0619,1.0619,1.062,1.062,1.0476,1.0469,1.0482,1.0483,1.049,1.0496,1.0492,1.0506,1.0506,1.0511,1.0525,1.0522,1.0533,1.0543,1.0549,1.0547,1.0559,1.0553,1.0552,1.055,1.0547,1.0601,1.0548,1.0548,1.0548,1.0549,1.0549,0,1.0413,1.0424,1.0424,1.0433,1.0433,1.0453,1.0461,1.0461,1.0458,1.0467,1.047,1.047,1.0471,1.0488,1.0491,1.0487,1.0496,1.0487,1.0488,1.049,1.0535,1.0539,1.048,1.048,1.048,1.048,1.048,1.048,1.0381,1.0371,1.0383,1.0378,1.0388,1.0387,1.039,1.0396,1.0404,1.0403,1.0405,1.0416,1.0428,1.0433,1.0436,1.0441,1.0441,1.0429,1.0437,1.048,1.0486,1.0493,1.0496,1.0429,1.0429,1.0392,1.0392,1.0391]}]]